Location: Gro�sch�nbrunn
(49.5760°N, 11.8868°E)
Time: 17:29:57
(UTC+00:00)

SJ-6B - Pass Details

Date: 18 September 2020
Orbit: 511 x 580 km, 97.6° (Epoch: 31 October)

Event Time Altitude Azimuth Distance (km) Brightness Sun altitude
Exits shadow 19:22:22 18° 195° (SSW) 1,324 4.6 -20.1°
Maximum altitude 19:24:53 43° 261° (W) 730 3.8 -20.4°
Drops below altitude 10° 19:28:30 10° 334° (NNW) 1,755 6.1 -20.9°
Sets 19:30:42 0° 342° (NNW) 2,655 7.1 -21.3°
